San Diego, CA

8:07 PM PDT on April 21, 2018 (GMT -0700)
San Diego International-Lindbergh

Weather History for KSAN - July, 2014

Change the Weather History Date:

Monday, July 7, 2014

  Actual Average Record
Temperature  
Mean Temperature 76 °F 69 °F  
Max Temperature 81 °F 74 °F 86 °F (1954)
Min Temperature 71 °F 65 °F 56 °F (1915)
Degree Days  
Heating Degree Days 0 0  
Month to date heating degree days 0 0  
Since 1 June heating degree days 0 18  
Since 1 July heating degree days 0 0  
Cooling Degree Days 11 4  
Month to date cooling degree days 62 28  
Year to date cooling degree days 413 137  
Since 1 June cooling degree days 174 88  
Growing Degree Days 25 (Base 50)    
Moisture  
Dew Point 63 °F    
Average Humidity 65    
Maximum Humidity 79    
Minimum Humidity 51    
Precipitation  
Precipitation 0.00 in 0.00 in 0.02 in (1992)
Month to date precipitation 0.00 0.00  
Year to date precipitation 2.82 7.03  
Since 1 July precipitation 0.00  
Snow  
Snow 0.00 in - - ()
Month to date snowfall 0.0  
Year to date snowfall 0.0  
Snow Depth 0.00 in    
Sea Level Pressure  
Sea Level Pressure 29.92 in    
Wind  
Wind Speed 5 mph (West)    
Max Wind Speed 12 mph    
Max Gust Speed 15 mph    
Visibility 10 miles    
Events      
T = Trace of Precipitation, MM = Missing Value Source: NWS Daily Summary

Daily Weather History Graph

Daily Weather History Graph

Search for Another Location

Airport or City:

Astronomy

Jul. 07, 2014 Rise Set
Actual Time 5:47 AM PDT 7:59 PM PDT
Civil Twilight 5:18 AM PDT 8:28 PM PDT
Nautical Twilight 4:44 AM PDT 9:02 PM PDT
Astronomical Twilight 4:07 AM PDT 9:40 PM PDT
Moon 3:15 PM PDT (7/7) 1:33 AM PDT (7/7)
Length of Visible Light 15h 09m
Length of Day
14h 12m
Waxing Gibbous, 73% of the Moon is Illuminated
Jul 7
Waxing Gibbous
Jul 12
Full
Jul 18
Last Quarter
Jul 26
New
Aug 3
First Quarter

Hourly Weather History & Observations

Time (PDT) Temp. Heat Index Dew Point Humidity Pressure Visibility Wind Dir Wind Speed Gust Speed Precip Events Conditions
12:51 AM 72.0 °F - 64.9 °F 78% 29.93 in 10.0 mi West 4.6 mph - N/A   Partly Cloudy
1:30 AM 71.6 °F - 64.4 °F 78% 29.92 in 10.0 mi WNW 4.6 mph - N/A   Partly Cloudy
1:51 AM 72.0 °F - 64.9 °F 78% 29.93 in 10.0 mi WNW 4.6 mph - N/A   Partly Cloudy
2:51 AM 71.1 °F - 64.9 °F 81% 29.91 in 10.0 mi NW 4.6 mph - N/A   Partly Cloudy
3:51 AM 71.1 °F - 64.9 °F 81% 29.92 in 10.0 mi WNW 3.5 mph - N/A   Partly Cloudy
4:51 AM 71.1 °F - 64.9 °F 81% 29.92 in 10.0 mi Calm Calm - N/A   Partly Cloudy
5:51 AM 71.1 °F - 64.9 °F 81% 29.93 in 10.0 mi Calm Calm - N/A   Scattered Clouds
6:51 AM 71.1 °F - 64.9 °F 81% 29.95 in 9.0 mi NNE 4.6 mph - N/A   Scattered Clouds
7:51 AM 73.0 °F - 64.9 °F 76% 29.95 in 10.0 mi Calm Calm - N/A   Scattered Clouds
8:51 AM 75.0 °F - 64.0 °F 69% 29.95 in 10.0 mi Calm Calm - N/A   Partly Cloudy
9:51 AM 78.1 °F - 64.0 °F 62% 29.95 in 10.0 mi WSW 5.8 mph - N/A   Scattered Clouds
10:51 AM 80.1 °F 81.7 °F 64.0 °F 58% 29.94 in 10.0 mi WNW 5.8 mph - N/A   Partly Cloudy
11:51 AM 80.1 °F 81.2 °F 62.1 °F 54% 29.94 in 10.0 mi SW 6.9 mph - N/A   Partly Cloudy
12:51 PM 80.1 °F 80.9 °F 60.1 °F 50% 29.93 in 10.0 mi Variable 4.6 mph - N/A   Partly Cloudy
1:51 PM 80.1 °F 81.1 °F 61.0 °F 52% 29.91 in 10.0 mi WNW 5.8 mph - N/A   Partly Cloudy
2:51 PM 78.1 °F - 61.0 °F 56% 29.90 in 10.0 mi SW 10.4 mph - N/A   Partly Cloudy
3:51 PM 77.0 °F - 61.0 °F 58% 29.90 in 10.0 mi Variable 5.8 mph - N/A   Partly Cloudy
4:51 PM 75.9 °F - 61.0 °F 60% 29.89 in 10.0 mi WNW 9.2 mph - N/A   Partly Cloudy
5:51 PM 73.9 °F - 62.1 °F 66% 29.89 in 10.0 mi WNW 8.1 mph - N/A   Partly Cloudy
6:51 PM 72.0 °F - 61.0 °F 68% 29.88 in 10.0 mi West 6.9 mph - N/A   Partly Cloudy
7:51 PM 72.0 °F - 61.0 °F 68% 29.90 in 10.0 mi WSW 4.6 mph - N/A   Partly Cloudy
8:51 PM 70.0 °F - 61.0 °F 73% 29.92 in 10.0 mi WSW 5.8 mph - N/A   Partly Cloudy
9:51 PM 70.0 °F - 62.1 °F 76% 29.93 in 10.0 mi Calm Calm - N/A   Scattered Clouds
10:15 PM 69.8 °F - 62.6 °F 78% 29.94 in 10.0 mi South 4.6 mph - N/A   Mostly Cloudy
10:51 PM 70.0 °F - 62.1 °F 76% 29.94 in 10.0 mi South 3.5 mph - N/A   Mostly Cloudy
11:00 PM 69.8 °F - 62.6 °F 78% 29.93 in 10.0 mi WSW 3.5 mph - N/A   Scattered Clouds
11:26 PM 69.8 °F - 62.6 °F 78% 29.93 in 10.0 mi Calm Calm - N/A   Mostly Cloudy
11:51 PM 70.0 °F - 62.1 °F 76% 29.93 in 10.0 mi Calm Calm - N/A   Mostly Cloudy